#timestamp,LO_Frequency,Hit,StdDev 
1548136815.8,286046994.2,N
1548136835.7,286046995.0,N
1548136855.5,286046999.0,N
1548136875.4,286047000.7,N
1548136895.2,286047001.6,N
1548136915.0,286047004.1,N
1548136915.9,286047004.1,N
1548136935.8,286046999.7,N
1548136955.6,286046999.2,N
1548136975.4,286046997.3,N
1548136995.3,286046995.3,N
1548137015.1,286046996.7,N
1548137035.9,286046998.6,N
1548137055.7,286046999.1,N
1548137075.5,286046998.4,N
1548137095.4,286046999.1,N
1548137115.2,286046997.3,N
1548137135.0,286046997.5,N
1548137135.9,286046997.5,N
1548137155.8,286046998.3,N
1548137175.6,286047003.1,N
1548137195.5,286047006.6,N
1548137215.3,286047006.1,N
1548137235.1,286047006.3,N
1548137255.9,286047005.3,N
1548137275.7,286047004.2,N
1548137295.5,286047001.7,N
1548137315.4,286047002.6,N
1548137335.2,286047001.1,N
1548137355.1,286046999.1,N
1548137356.0,286046999.1,N
1548137375.8,286047000.9,N
1548137395.6,286047000.2,N
1548137415.5,286047002.5,N
1548137435.3,286047002.5,N
1548137455.2,286047002.7,N
1548137475.9,286046998.4,N
1548137495.7,286046999.3,N
1548137515.6,286047000.6,N
1548137535.4,286047001.0,N
1548137555.2,286047002.4,N
1548137575.1,286047001.8,N
1548137576.0,286047001.8,N
1548137595.8,286047005.1,N
1548137615.7,286047006.0,N
1548137635.5,286047005.8,N
1548137655.3,286047003.8,N
1548137675.2,286047001.4,N
1548137695.0,286046999.8,N
1548137695.9,286046999.8,N
1548137715.7,286047000.6,N
1548137735.6,286046998.5,N
1548137755.4,286046998.5,N
1548137775.3,286047000.2,N
1548137795.1,286047002.8,N
1548137796.0,286047002.8,N
1548137815.8,286047003.7,N
1548137835.7,286047004.3,N
1548137855.5,286047000.5,N
1548137875.3,286047002.6,N
1548137895.2,286046999.7,N
1548137915.0,286047000.9,N
1548137915.9,286047000.9,N
1548137935.8,286046999.9,N
1548137955.6,286047001.8,N
1548137975.4,286046999.7,N
1548137995.3,286047000.8,N
1548138015.1,286047000.4,N
1548138035.9,286047000.2,N
1548138055.7,286046999.8,N
1548138075.5,286047002.0,N
1548138095.4,286047002.5,N
1548138115.2,286047004.1,N
1548138135.0,286047003.8,N
1548138135.9,286047003.8,N
1548138155.8,286047002.8,N
1548138175.6,286046998.8,N
1548138195.5,286046996.5,N
1548138215.3,286046997.7,N
1548138235.1,286046998.5,N
1548138255.9,286047004.3,N
1548138275.7,286047003.5,N
1548138295.5,286047001.7,N
1548138315.4,286047004.1,N
1548138335.2,286047003.9,N
1548138355.1,286047002.2,N
1548138356.0,286047002.2,N
1548138375.8,286047002.3,N
1548138395.6,286046998.1,N
1548138415.5,286046996.8,N
1548138435.2,286046995.1,N
1548138455.0,286046995.7,N
1548138455.9,286046995.7,N
1548138475.8,286046995.0,N
1548138495.6,286046993.6,N
1548138515.5,286046993.3,N
1548138535.3,286046997.5,N
1548138555.1,286046996.9,N
1548138575.9,286046999.4,N
1548138595.7,286046999.3,N
1548138615.6,286046998.1,N
1548138635.4,286047000.6,N
1548138655.2,286047002.6,N
1548138675.1,286047001.5,N
1548138676.0,286047001.5,N
1548138695.8,286047004.1,N
1548138715.6,286047001.6,N
1548138735.5,286047001.8,N
1548138755.3,286047005.7,N
1548138775.2,286047004.9,N
1548138795.9,286047005.5,N
1548138815.7,286047004.6,N
1548138835.6,286047004.6,N
1548138855.4,286047006.0,N
1548138875.8,286047005.3,N
1548138895.7,286047006.5,N
1548138915.5,286047009.4,N
1548138935.4,286047007.8,N
1548138955.2,286047004.8,N
1548138975.0,286047001.8,N
1548138975.9,286047001.8,N
1548138995.8,286046999.7,N
1548139015.6,286047001.5,N
1548139035.4,286047002.2,N
1548139055.3,286047003.8,N
1548139075.1,286047004.2,N
1548139095.9,286047006.0,N
1548139115.7,286047006.7,N
1548139135.5,286047005.5,N
1548139155.4,286047001.4,N
1548139175.2,286047001.6,N
1548139195.0,286047002.6,N
1548139196.0,286047002.6,N
1548139215.8,286047002.5,N
1548139235.6,286047002.0,N
1548139255.6,286047002.0,N
1548139275.4,286047006.0,N
1548139295.2,286047003.4,N
1548139315.1,286047003.0,N
1548139316.0,286047003.0,N
1548139335.8,286047003.4,N
1548139355.7,286047001.6,N
1548139375.5,286047003.1,N
1548139395.3,286047004.8,N
1548139415.2,286047006.7,Y
1548139435.0,286047005.5,P
1548139435.9,286047005.5,P
1548139455.8,286047003.1,P
1548139475.6,286047002.9,N
1548139495.4,286047006.5,Y
1548139515.3,286047005.1,P
1548139535.1,286047004.2,P
1548139555.9,286047001.2,N
1548139575.7,286046997.8,N
1548139595.5,286046995.4,N
1548139615.3,286046999.2,N
1548139635.1,286046999.3,N
1548139655.9,286046997.0,N
1548139675.7,286046996.2,N
1548139695.6,286046996.1,N
1548139715.4,286046999.1,N
1548139735.2,286046998.5,N
1548139755.1,286046998.1,N
1548139756.0,286046998.1,N
1548139775.8,286046998.1,N
1548139795.7,286046999.4,N
1548139815.5,286046998.1,N
1548139835.3,286046998.9,N
1548139855.2,286046994.9,N
1548139875.0,286046993.5,N
1548139875.9,286046993.5,N
1548139895.8,286046991.9,N
1548139915.6,286046993.2,N
1548139935.4,286046992.8,N
1548139955.3,286046992.2,N
1548139975.1,286046995.5,N
1548139995.8,286046998.2,N
1548140015.7,286046998.5,N
1548140035.5,286046996.9,N
1548140055.4,286046995.2,N
1548140075.2,286046993.3,N
1548140095.0,286046990.5,Y
1548140115.3,286046993.6,P
1548140135.1,286046994.2,P
1548140155.9,286046995.5,P
1548140175.7,286046997.8,N
1548140195.5,286046997.8,N
1548140215.4,286046997.0,N
1548140235.2,286046998.0,N
1548140255.6,286046997.0,N
1548140275.5,286046998.3,N
1548140295.3,286047000.3,N
1548140315.1,286046998.1,N
1548140335.9,286046997.7,N
1548140355.7,286046996.1,N
1548140375.5,286046993.7,Y
1548140395.4,286046996.1,P
